IZ0ANE-13 Weather Reports


time (UTC)temp
C
wind
direction
speed
KPH
gust
KPH
rain 1hr
cm
rain 24hr
cm
rain mn
cm
humidity
%
barometer
mb
20260906064003 23 185 0.0 3.2 0.00 0.00 0.00 77 1020.0
20260906062003 23 103 1.6 1.6 0.00 0.00 0.00 76 1019.9
20260906060003 20 217 0.0 1.6 0.00 0.00 0.00 89 1019.8
20260906054024 20 217 0.0 1.6 0.00 0.00 0.00 89 1019.6
20260906052024 20 217 0.0 1.6 0.00 0.00 0.00 89 1019.6
20260906050003 20 186 1.6 1.6 0.00 0.00 0.00 89 1019.3
20260906044003 20 155 0.0 1.6 0.00 0.00 0.00 87 1019.2
20260906042003 20 153 0.0 1.6 0.00 0.00 0.00 87 1019.2
20260906040003 20 0 0.0 0.0 0.00 0.00 0.00 86 1019.0
20260906034003 20 0 0.0 0.0 0.00 0.00 0.00 86 1018.9
20260906032003 20 0 0.0 0.0 0.00 0.00 0.00 85 1019.0
20260906030004 21 0 0.0 0.0 0.00 0.00 0.00 85 1019.0
20260906024003 21 0 0.0 0.0 0.00 0.00 0.00 85 1019.1
20260906014003 22 0 0.0 0.0 0.00 0.00 0.00 79 1019.0
20260906012003 22 0 0.0 0.0 0.00 0.00 0.00 79 1019.0
20260906010003 22 0 0.0 0.0 0.00 0.00 0.00 79 1019.1
20260906004003 22 0 0.0 0.0 0.00 0.00 0.00 78 1018.9
20260906002003 24 141 1.6 3.2 0.00 0.00 0.00 73 1019.1
20260906000003 24 141 1.6 3.2 0.00 0.00 0.00 73 1019.0
20260905234003 24 141 1.6 3.2 0.00 0.00 0.00 73 1018.9
20260905232024 24 141 1.6 3.2 0.00 0.00 0.00 73 1019.0
20260905230003 24 141 1.6 3.2 0.00 0.00 0.00 73 1019.0
20260905224003 26 38 1.6 1.6 0.00 0.00 0.00 70 1018.9
20260905222003 26 38 1.6 1.6 0.00 0.00 0.00 70 1018.8
20260905220024 26 38 1.6 1.6 0.00 0.00 0.00 70 1018.8
20260905214003 26 38 1.6 1.6 0.00 0.00 0.00 70 1018.6
20260905212003 26 38 1.6 1.6 0.00 0.00 0.00 70 1018.7
20260905210003 26 38 1.6 1.6 0.00 0.00 0.00 70 1018.5
20260905204024 26 38 1.6 1.6 0.00 0.00 0.00 70 1018.4
20260905202003 26 53 1.6 3.2 0.00 0.00 0.00 70 1018.4
20260905200003 26 352 3.2 3.2 0.00 0.00 0.00 70 1018.3
20260905194003 26 54 1.6 1.6 0.00 0.00 0.00 71 1018.2
20260905192003 26 169 0.0 3.2 0.00 0.00 0.00 72 1018.0
20260905190003 27 230 1.6 3.2 0.00 0.00 0.00 68 1017.9
20260905184024 27 153 1.6 3.2 0.00 0.00 0.00 67 1017.8
20260905182024 27 181 1.6 3.2 0.00 0.00 0.00 67 1017.7
20260905180003 28 239 1.6 3.2 0.00 0.00 0.00 66 1017.4
20260905174003 28 169 1.6 4.8 0.00 0.00 0.00 64 1017.4
20260905172003 28 206 3.2 6.4 0.00 0.00 0.00 64 1017.2
20260905170003 28 198 3.2 12.9 0.00 0.00 0.00 63 1017.0
20260905164003 29 228 1.6 6.4 0.00 0.00 0.00 63 1016.8
20260905162003 30 215 6.4 12.9 0.00 0.00 0.00 63 1017.0
20260905160003 31 194 11.3 17.7 0.00 0.00 0.00 59 1016.5
20260905154003 31 207 6.4 14.5 0.00 0.00 0.00 54 1016.8
20260905152024 32 126 8.0 17.7 0.00 0.00 0.00 51 1016.6
20260905150003 32 172 9.7 11.3 0.00 0.00 0.00 45 1016.3
20260905144003 33 188 8.0 11.3 0.00 0.00 0.00 41 1016.3
20260905142003 33 120 22.5 24.1 0.00 0.00 0.00 37 1016.3
20260905140004 33 157 17.7 29.0 0.00 0.00 0.00 36 1016.3
20260905134003 35 89 4.8 6.4 0.00 0.00 0.00 35 1016.2
20260905132003 35 152 17.7 22.5 0.00 0.00 0.00 34 1016.4
20260905130003 35 152 12.9 22.5 0.00 0.00 0.00 34 1016.6
20260905124024 35 155 8.0 14.5 0.00 0.00 0.00 34 1016.7
20260905122003 35 189 11.3 16.1 0.00 0.00 0.00 33 1016.8
20260905120003 35 146 8.0 12.9 0.00 0.00 0.00 34 1017.1
20260905114003 34 171 4.8 4.8 0.00 0.00 0.00 35 1017.3
20260905112003 34 164 3.2 4.8 0.00 0.00 0.00 35 1017.5
20260905110003 34 210 3.2 4.8 0.00 0.00 0.00 37 1017.7
20260905104003 32 268 4.8 6.4 0.00 0.00 0.00 39 1018.1
20260905102003 32 185 3.2 11.3 0.00 0.00 0.00 38 1018.2
20260905100024 32 186 6.4 6.4 0.00 0.00 0.00 40 1018.4
20260905094003 31 140 1.6 3.2 0.00 0.00 0.00 43 1018.7
20260905092003 30 247 1.6 1.6 0.00 0.00 0.00 47 1018.8
20260905090003 30 247 1.6 1.6 0.00 0.00 0.00 47 1018.7
20260905084003 29 0 0.0 0.0 0.00 0.00 0.00 47 1018.9
20260905082003 28 104 0.0 1.6 0.00 0.00 0.00 49 1018.7
20260905080004 26 99 3.2 3.2 0.00 0.00 0.00 56 1018.6
20260905074003 26 99 3.2 4.8 0.00 0.00 0.00 56 1018.4
20260905072003 25 123 3.2 4.8 0.00 0.00 0.00 61 1018.2
20260905070004 24 129 1.6 3.2 0.00 0.00 0.00 61 1018.4